User: anonymous   Login
Location: Unspecified
(0.0000°N, 0.0000°E)
Time: 08:04:07
(UTC+02:00)
Language:

ADEOS II - Orbit

View from above orbital plane
View from above orbital plane
View from above satellite
View from above satellite

Ground track
Ground track

The orbit data is extracted from the following two-line orbital elements,

1 27597U 02056A   15184.88284301  .00000134  00000-0  71740-4 0  9997
2 27597 098.2873 177.5003 0000386 070.2465 348.4932 14.27103115653533
Epoch (UTC): 03 July 2015 21:11:17
Eccentricity: 0.0000386
inclination: 98.2873°
perigee height: 801 km
apogee height: 802 km
right ascension of ascending node: 177.5003°
argument of perigee: 70.2465°
revolutions per day: 14.27103115
mean anomaly at epoch: 348.4932°
orbit number at epoch: 65353

The dashed part of the orbit path shows where the satellite is in the earth's shadow,  

DLR